Dewpoint
54 53 51 51 54 53 54 56 57 57 57 55 54 53 53 51 48 47 47 49 48 48 47 38 33 36 36 33 30 26 17 15 20 20 22 26 23 26 26 23 24 28 31 32 33
53 53 51 49 50 53 54 55 55 57 56 56 55 54 52 50 49 48 52 49 46 47 38 32 33 33 31 29 27 19 19 23 29 27 25 26 24 25 22 22 23 27 27 29 30
49 51 50 49 49 49 49 52 54 54 58 57 55 55 51 49 35 43 53 52 48 47 40 37 31 29 29 26 24 24 21 29 29 27 27 25 23 25 22 18 22 23 24 25 26
49 49 50 49 49 49 49 51 53 52 54 58 55 53 52 47 21 47 48 48 50 45 34 30 27 27 25 22 23 22 26 28 28 25 21 19 24 16 23 20 25 25 25 26 25
49 49 48 50 48 48 49 51 53 52 54 57 54 52 46 42 42 44 45 43 39 36 32 26 25 25 22 21 23 22 24 27 27 26 26 25 22 22 21 23 25 26 26 26 26
51 50 49 48 48 49 52 52 54 51 54 53 53 48 42 35 41 42 42 37 36 34 33 31 26 27 26 25 22 25 23 25 25 24 22 21 22 22 20 23 22 23 23 24 24
51 52 50 48 48 49 52 53 54 53 52 50 49 43 36 36 41 42 36 35 35 34 31 33 32 27 27 24 26 23 19 23 23 22 21 18 12 15 20 21 21 21 21 20 20
50 50 50 48 48 50 53 53 52 51 50 50 48 40 33 38 41 35 34 31 32 32 32 33 31 28 27 27 24 21 20 10 21 20 18 13 8 12 20 20 19 18 18 18 20
50 51 51 52 52 53 53 52 51 50 51 50 44 39 32 36 32 33 33 31 32 32 33 32 32 31 30 21 18 21 10 15 18 19 15 14 9 12 19 19 17 19 20 22 22
50 50 51 50 50 50 48 47 46 46 45 45 43 35 32 31 33 34 34 31 30 28 27 28 28 25 21 23 1 14 15 12 11 22 23 19 16 19 23 22 22 23 24 25 29
49 50 50 50 49 48 46 43 38 38 41 37 36 32 33 34 35 33 34 32 30 29 24 26 19 17 18 18 19 16 13 10 16 27 21 21 22 20 22 24 25 27 29 34 34
49 48 49 48 48 46 45 41 42 41 34 38 34 33 34 35 29 30 33 27 28 25 25 22 19 22 24 22 20 18 15 17 20 26 23 22 19 19 23 27 30 33 34 35 36
49 48 46 46 45 44 43 43 47 44 32 30 34 34 34 32 30 29 30 28 25 24 23 21 22 24 23 23 20 24 20 22 21 26 25 23 10 13 20 31 35 35 36 36 36
50 48 48 46 39 43 41 43 46 45 25 26 30 31 32 32 25 32 32 28 26 24 24 23 25 24 23 22 21 17 26 26 25 22 8 23 -2 12 20 27 32 33 35 36 36
47 48 48 43 41 38 42 46 45 34 15 25 30 34 33 27 26 27 32 28 25 25 23 23 24 25 24 25 21 22 28 27 26 24 21 20 17 14 22 26 28 32 35 36 37
44 44 44 42 40 42 42 41 32 16 17 26 30 28 27 28 28 29 29 30 30 25 27 26 27 26 26 29 29 29 27 24 24 20 12 15 20 18 19 26 30 33 35 36 37
45 43 41 42 33 41 41 30 16 18 25 25 26 27 27 26 27 27 27 27 23 13 16 24 27 29 27 26 28 26 20 11 10 14 6 19 22 20 23 30 33 34 36 37 37
47 42 42 41 41 41 32 22 14 23 25 27 26 26 25 26 26 26 24 25 27 23 21 15 13 26 27 26 26 26 22 13 5 8 14 21 18 17 25 30 35 36 37 37 37
41 38 38 37 41 38 26 20 21 24 27 26 24 22 23 24 24 25 25 25 27 26 20 21 21 28 31 33 29 27 23 27 22 20 18 17 19 22 31 33 34 35 37 37 37
34 36 32 40 41 31 26 25 25 27 27 24 19 23 19 23 24 24 24 27 28 29 27 25 20 28 34 33 34 28 31 24 23 15 12 14 16 16 26 28 30 33 36 37 38
36 24 28 40 34 28 23 25 27 30 27 24 21 22 23 22 24 24 24 27 30 29 30 28 24 28 32 29 27 29 26 27 24 22 18 16 14 21 23 27 29 33 35 37 37
32 21 31 33 22 27 25 27 28 27 28 25 23 23 22 23 24 25 24 28 30 30 28 30 25 24 26 30 30 29 27 26 22 19 23 22 19 24 28 31 33 34 36 36 37
30 29 34 26 13 25 27 27 28 27 27 26 24 24 24 22 22 25 25 29 30 29 29 32 28 21 24 30 31 30 29 28 28 27 23 20 17 31 33 34 35 35 35 35 37
30 15 26 29 28 25 24 25 25 28 27 27 26 26 24 23 25 24 27 28 31 30 34 33 30 25 18 20 28 28 30 30 29 26 21 22 20 22 26 28 29 31 32 34 35
29 24 28 22 25 26 25 26 23 23 27 28 26 25 24 23 24 24 26 27 30 31 34 32 27 28 28 29 29 28 27 29 29 29 24 22 23 24 25 28 29 31 33 34 34
28 22 26 25 23 22 23 23 22 24 25 24 25 26 26 24 24 24 26 27 28 32 31 31 26 27 25 27 27 27 28 29 28 29 29 28 28 29 30 30 29 30 32 32 33
35 33 26 24 21 20 19 21 22 24 25 27 26 26 26 26 27 28 29 29 30 30 30 30 28 23 21 24 24 17 21 24 27 29 29 27 28 29 29 29 28 28 30 30 32
Wind_Speed
15 15 17 20 18 10 11 10 3 4 8 18 18 16 14 9 6 5 10 2 4 7 6 2 4 6 6 5 5 3 5 5 3 6 4 5 3 5 3 4 5 5 3 2 5
15 13 13 17 16 16 17 14 8 10 15 18 20 17 15 13 17 19 9 7 5 9 4 5 8 7 6 3 4 5 4 4 1 1 3 4 4 3 2 3 5 7 7 7 6
17 15 13 14 15 13 12 14 11 10 6 18 20 17 14 2 7 3 14 8 6 7 1 1 4 6 6 5 4 3 4 7 2 2 1 2 3 4 2 2 2 5 1 2 1
13 11 10 11 10 12 10 11 14 8 1 8 19 15 9 2 7 3 15 10 10 9 2 6 5 5 6 7 2 7 4 3 5 2 2 3 1 2 1 1 7 1 3 4 4
11 9 8 7 9 8 9 7 11 10 7 19 14 12 2 9 5 9 16 10 5 4 6 7 9 6 8 8 5 8 5 4 5 5 5 3 3 4 8 9 7 8 7 11 12
18 4 5 6 6 6 6 7 7 11 21 18 7 9 1 17 7 11 10 5 8 7 7 7 5 10 9 6 5 5 9 8 1 4 4 2 2 4 2 4 6 4 3 5 9
21 10 6 4 5 5 10 18 28 29 24 21 12 3 22 8 9 13 6 7 9 7 8 5 3 6 6 9 3 6 7 5 3 1 2 2 5 8 3 5 5 8 9 10 12
25 20 10 7 5 7 22 27 30 27 23 20 18 11 9 5 8 10 6 12 13 9 10 6 11 11 5 8 6 5 5 4 2 3 3 3 7 5 6 7 10 12 16 19 19
26 27 21 27 15 31 29 29 28 31 26 20 13 7 6 12 9 9 9 6 7 9 12 8 7 6 5 7 6 6 4 3 3 8 4 2 7 4 7 11 21 20 17 17 18
25 27 28 25 24 31 30 33 34 22 20 12 8 7 7 5 5 6 6 7 10 6 8 9 7 5 5 4 8 5 4 2 2 7 5 5 19 21 18 14 24 21 16 12 8
21 20 23 19 17 10 7 5 8 12 17 12 4 8 3 6 5 13 7 4 5 11 5 7 13 10 6 5 5 8 6 3 1 5 7 2 13 28 22 13 15 11 5 7 9
18 19 22 20 21 14 10 7 4 7 19 7 17 10 7 3 12 22 10 5 6 10 4 9 10 3 5 7 9 6 4 2 3 4 5 8 23 23 7 3 4 6 5 9 14
17 14 15 12 16 15 16 9 4 4 9 12 7 7 5 10 7 13 10 4 12 12 9 9 3 3 5 8 7 8 5 3 2 11 4 15 9 2 3 5 3 4 5 7 11
21 13 12 9 4 2 5 4 5 4 8 14 12 8 9 3 7 6 6 4 6 10 9 10 4 6 8 7 5 2 2 3 3 8 4 6 8 7 4 4 3 6 11 14 17
17 16 10 9 2 3 2 5 4 2 7 11 7 5 7 7 2 11 6 11 7 5 2 1 4 6 6 2 2 3 1 1 2 3 4 1 2 8 4 7 9 8 12 14 14
11 12 9 5 3 1 4 1 2 3 7 5 5 6 4 9 4 3 6 8 2 12 15 5 2 3 3 4 5 2 2 5 4 3 4 2 2 8 7 6 4 9 13 14 17
11 10 4 1 6 5 3 3 6 10 3 2 2 3 6 6 6 6 7 8 3 5 4 4 3 2 2 3 4 4 3 4 3 2 5 0 4 16 9 9 6 13 18 16 16
12 3 2 2 4 3 3 6 12 3 3 1 2 6 4 4 4 4 3 4 5 5 5 4 1 2 2 2 3 3 3 3 4 3 5 0 9 5 7 9 11 14 17 16 15
4 3 0 2 3 2 7 13 6 5 4 6 3 4 3 3 3 3 3 2 1 2 3 5 2 1 2 1 1 3 0 3 1 1 4 5 8 13 7 10 15 15 12 16 12
2 3 4 8 2 4 10 8 3 3 4 2 2 1 3 2 2 2 1 1 3 1 2 4 4 2 3 2 3 1 1 2 1 3 6 7 8 14 4 9 10 12 12 12 12
4 3 4 7 2 13 10 6 5 4 2 1 1 3 2 2 1 1 2 0 3 2 4 3 2 1 1 5 9 5 3 4 2 3 3 7 9 9 13 9 10 12 13 16 13
3 3 8 5 6 5 6 3 2 2 3 2 2 3 3 4 3 2 3 2 6 7 2 1 3 4 10 3 12 6 8 10 5 3 4 2 13 8 18 12 11 17 18 16 12
2 2 3 4 5 5 2 5 3 3 1 2 1 1 2 5 1 3 3 2 7 8 3 4 2 2 3 1 3 6 7 10 3 3 10 5 10 3 8 15 19 19 21 16 11
3 1 5 7 3 8 4 1 4 3 2 2 1 1 1 1 1 2 3 2 6 7 6 6 2 7 7 1 3 6 10 17 16 8 6 21 25 31 21 19 22 19 16 13 9
4 2 0 2 3 6 3 5 2 3 3 4 2 5 5 2 2 4 3 1 1 3 5 3 6 7 16 20 18 22 20 17 23 24 15 10 19 28 25 20 20 16 9 10 12
1 3 3 3 2 2 1 6 6 2 6 4 6 5 8 7 9 6 5 5 5 5 8 4 5 7 18 14 11 18 24 26 29 29 32 33 40 36 30 10 8 12 10 12 14
2 3 1 1 3 4 3 4 7 4 4 3 7 4 9 15 9 7 7 3 4 8 13 4 5 6 7 8 18 18 22 29 17 12 29 28 35 20 23 18 16 13 12 14 13
Wind_Direction
72 59 66 71 68 105 116 102 8 307 200 163 149 147 143 134 118 68 57 334 1 341 331 314 71 87 61 75 55 95 75 121 132 156 136 7 104 6 328 63 48 20 85 7 103
56 63 60 68 80 88 100 95 73 15 195 167 148 144 140 142 89 66 17 20 24 7 41 116 110 96 69 57 35 70 95 152 179 129 110 54 81 342 56 66 58 74 58 62 73
40 44 47 54 62 86 87 100 102 65 81 158 146 144 145 130 78 21 356 354 347 0 14 74 109 79 76 56 23 81 122 147 88 114 63 74 54 350 75 174 179 145 43 18 50
30 45 45 33 44 59 72 78 98 72 131 167 138 132 143 339 139 300 344 338 327 320 164 127 87 80 98 107 53 101 80 125 141 48 38 64 11 330 269 98 143 18 313 308 284
17 22 44 32 27 38 47 81 115 134 212 134 121 128 76 63 48 310 331 335 352 49 75 116 99 109 114 113 88 90 119 84 91 65 61 38 20 299 271 268 280 276 270 277 283
17 38 43 47 43 31 28 106 121 167 118 98 67 347 42 82 315 317 329 24 46 67 58 42 106 113 91 86 83 103 111 120 92 86 47 16 301 348 272 348 319 338 295 309 300
23 56 78 66 81 77 87 105 92 96 90 84 48 81 59 65 324 325 34 55 49 68 76 39 92 88 122 101 117 108 98 96 35 48 66 342 267 238 280 6 329 314 312 318 311
46 54 44 54 73 114 100 111 84 79 72 54 27 44 76 323 323 22 8 50 47 54 80 71 80 85 57 119 46 72 66 148 5 29 12 32 264 319 343 340 309 302 301 306 310
54 43 73 53 102 95 96 92 82 69 51 43 37 31 52 333 27 347 25 61 50 45 47 63 64 68 49 99 85 32 168 170 114 33 341 22 275 278 351 322 299 299 306 315 312
55 49 42 39 54 81 80 77 60 37 13 33 30 65 359 10 340 352 357 41 62 51 48 39 53 81 46 55 185 168 135 109 167 355 360 300 281 291 298 301 293 302 313 325 343
61 50 52 41 32 24 28 46 29 45 50 76 19 79 40 322 29 18 356 24 48 58 83 30 83 89 69 62 92 108 112 124 99 19 347 306 289 289 305 294 291 321 59 15 353
57 68 62 64 60 50 63 71 31 140 76 24 48 52 44 353 51 10 9 70 68 96 77 67 78 43 70 72 85 75 98 10 284 1 342 326 298 295 323 341 102 98 35 360 344
38 37 69 45 59 44 59 51 345 347 89 34 30 23 358 41 43 1 17 51 72 69 77 101 102 52 84 61 76 50 79 43 342 331 50 337 289 274 264 141 114 51 359 331 331
25 30 24 343 58 1 45 347 353 358 85 5 353 23 359 20 45 357 15 61 53 99 77 70 20 80 76 66 44 99 63 63 3 2 291 6 287 283 239 239 235 333 339 331 330
25 26 32 48 123 63 312 337 338 46 77 326 341 311 352 80 149 8 2 51 89 84 149 115 86 90 82 67 85 146 98 11 68 57 344 277 242 266 267 233 245 315 316 316 315
20 11 18 37 25 113 332 350 80 41 68 352 339 355 37 39 44 12 41 58 110 65 59 79 40 60 107 83 65 92 92 59 68 59 285 219 212 270 216 215 254 305 318 317 319
351 358 34 56 324 328 354 54 59 64 328 49 51 33 62 39 46 48 58 57 83 116 49 14 9 344 96 98 28 79 67 315 320 335 240 210 241 252 258 238 259 304 306 306 305
336 61 357 270 316 0 63 69 71 224 201 219 88 54 64 13 42 32 72 64 42 73 112 146 199 164 168 130 127 68 120 180 256 257 292 211 243 247 245 230 243 269 273 285 296
355 346 136 281 310 114 88 60 125 168 168 144 85 75 25 26 107 56 68 113 113 150 133 146 170 116 97 119 139 125 251 151 35 299 295 252 277 283 223 257 265 272 286 288 292
44 355 325 333 93 75 72 92 82 140 111 80 106 147 142 143 65 60 165 166 131 124 124 172 114 212 153 105 74 122 169 143 132 268 275 287 279 245 246 252 281 306 286 289 290
44 13 343 358 46 60 71 69 88 57 87 111 113 111 108 133 151 180 208 313 138 138 71 128 97 139 66 213 189 153 210 198 218 227 253 309 288 224 213 222 261 281 278 273 270
80 39 339 13 37 44 89 105 123 71 54 82 119 109 145 163 156 211 202 240 173 153 104 157 112 230 223 231 201 182 199 183 192 206 236 261 275 238 224 230 248 275 281 279 272
46 302 340 46 94 62 89 113 117 138 74 37 62 56 171 181 205 221 228 300 173 169 167 178 216 289 358 347 108 227 207 208 208 162 229 219 259 330 252 257 265 275 282 291 291
81 12 6 59 86 116 116 174 145 159 173 152 142 78 106 197 201 225 223 223 189 194 161 161 232 226 232 188 165 215 221 212 206 221 231 231 266 275 276 277 284 283 285 292 302
36 98 347 97 58 114 115 162 182 192 196 171 189 189 171 221 239 240 218 244 221 205 150 187 261 243 263 267 258 251 243 221 216 227 238 263 243 268 285 288 289 289 296 296 305
43 140 83 106 92 114 114 203 199 214 178 215 200 207 196 200 198 200 183 203 206 179 180 205 266 302 296 275 257 261 249 235 233 233 241 254 272 276 277 282 292 302 290 285 292
107 27 16 137 145 153 221 203 208 187 224 222 212 174 206 233 226 242 222 186 200 180 193 206 238 309 270 306 312 280 247 225 215 213 224 239 245 262 280 288 289 297 279 274 279